Regional Weather Roundup
Issued by NWS

Home | Current Version | Previous Version | Text Only | Print | Product List | Glossary On
Versions: 1 2 3 4 5 6 7 8 9 10 11 12 13 14 15 16 17 18 19 20 21 22 23 24 25 26 27 28
000
ASUS42 KKEY 221110
RWRKEY

FLORIDA REGIONAL WEATHER ROUNDUP FOR THE FLORIDA KEYS
NATIONAL WEATHER SERVICE KEY WEST FLORIDA
700 AM EDT SUN OCT 22 2017

...SOUTH FLORIDA AND THE KEYS...

CITY           SKY/WX    TMP DP  RH WIND       PRES   REMARKS
FORT MYERS     CLOUDY    73  73 100 E6        30.05R
SW REGIONAL AP CLOUDY    76  76 100 E8        30.05R
NAPLES         MOCLDY    76  75  97 E7        30.04R
MIAMI          CLOUDY    82  74  76 E9        30.06R
WEST KENDALL   PTCLDY    80  73  79 E10       30.05R
HOMESTEAD      CLOUDY    81  77  86 E10       30.04R
MARATHON       CLOUDY    82  73  74 E10G20    30.01R
KEY WEST INTL  CLOUDY    82  76  81 SE16      30.02R

...INTERNATIONAL WEATHER...

CITY           SKY/WX    TMP DP  RH WIND       PRES   REMARKS
NASSAU BAHAMAS MOCLDY    81  73  78 E12       30.08R
CANCUN MEXICO  RAIN      75  75 100 SE9       29.93R
COZUMEL MEXICO LGT RAIN  75  75 100 SE9       29.89R

ADJACENT COASTAL WATERS...

STATION/POSITION TIME  SKY/WX   TEMP    WIND        PRES    WAVE
                                AIR SEA DIR/SP/G            HT/PER
                 (UTC)          (F)     (DEG/KT/KT) (MB)    (FT/S)
PULASKI SHOAL LI 1100            82     130/ 15/ 17 1015.7R
SAND KEY         1050            81                 1016.3R
LONG KEY         NOT AVBL
MOLASSES REEF    1100            82 83  110/ 19/ 23 1017.3R
FOWEY ROCKS      1100            82 83  100/ 22/ 25 1018.2R
Buoy 42097       1030               83                N/A     6/ 6

$$




USA.gov is the U.S. government's official web portal to all federal, state and local government web resources and services.